Location: Yecla
(38.6122°N, 1.1101°W)
Time: 08:46:14
(UTC+01:00)

ISS - Visible Passes

Search period start: 20 February 2018 00:00
Search period end: 02 March 2018 00:00
Orbit: 403 x 407 km, 51.6° (Epoch: 20 February)

Date Brightness Start Highest point End Pass type
(mag) Time Alt. Az. Time Alt. Az. Time Alt. Az.
25 Feb -2.4 07:12:29 10° SSW 07:15:34 40° SE 07:18:39 10° ENE visible
26 Feb -1.3 06:20:57 10° S 06:23:26 20° SE 06:25:56 10° E visible
27 Feb -0.7 05:31:04 10° SE 05:31:23 10° SE 05:31:41 10° ESE visible
27 Feb -3.9 07:04:08 10° SW 07:07:24 74° NW 07:10:40 10° NE visible
28 Feb -3.2 06:13:41 28° SSW 06:15:08 53° SE 06:18:21 10° ENE visible
01 Mar -1.3 05:23:59 21° ESE 05:23:59 21° ESE 05:25:43 10° ENE visible
01 Mar -2.8 06:56:40 12° W 06:59:20 32° NNW 07:02:20 10° NE visible
